| time (UTC) | temp C | wind direction | speed KPH | gust KPH | rain 1hr cm | rain 24hr cm | rain mn cm | humidity % | barometer mb |
| 20260506044543 | 4 | 330 | 3.2 | 8.0 | 0.00 | 0.00 | 0.00 | 55 | 1013.7 |
| 20260506043024 | 5 | 320 | 4.8 | 11.3 | 0.00 | 0.00 | 0.00 | 54 | 1013.8 |
| 20260506041503 | 5 | 311 | 6.4 | 12.9 | 0.00 | 0.00 | 0.00 | 52 | 1013.9 |
| 20260506040100 | 6 | 338 | 4.8 | 12.9 | 0.00 | 0.00 | 0.00 | 51 | 1013.7 |
| 20260506040001 | 6 | 334 | 4.8 | 12.9 | 0.00 | 0.00 | 0.00 | 51 | 1013.8 |
| 20260506034555 | 6 | 311 | 6.4 | 16.1 | 0.00 | 0.00 | 0.00 | 50 | 1013.6 |
| 20260506033036 | 6 | 319 | 8.0 | 19.3 | 0.00 | 0.00 | 0.00 | 49 | 1013.4 |
| 20260506031527 | 7 | 342 | 9.7 | 16.1 | 0.00 | 0.00 | 0.00 | 48 | 1013.4 |
| 20260506030011 | 7 | 340 | 8.0 | 17.7 | 0.00 | 0.00 | 0.00 | 47 | 1013.3 |
| 20260506024555 | 7 | 335 | 6.4 | 14.5 | 0.00 | 0.00 | 0.00 | 46 | 1013.1 |
| 20260506023057 | 7 | 347 | 8.0 | 20.9 | 0.00 | 0.00 | 0.00 | 46 | 1012.7 |
| 20260506021531 | 8 | 323 | 14.5 | 25.7 | 0.00 | 0.00 | 0.00 | 44 | 1012.5 |
| 20260506020030 | 8 | 304 | 4.8 | 12.9 | 0.00 | 0.00 | 0.00 | 44 | 1012.3 |
| 20260506014507 | 8 | 349 | 6.4 | 16.1 | 0.00 | 0.00 | 0.00 | 43 | 1012.0 |
| 20260506013006 | 8 | 279 | 9.7 | 19.3 | 0.00 | 0.00 | 0.00 | 40 | 1011.8 |
| 20260506011545 | 8 | 297 | 6.4 | 19.3 | 0.00 | 0.00 | 0.00 | 40 | 1011.7 |
| 20260506010053 | 9 | 329 | 12.9 | 24.1 | 0.00 | 0.00 | 0.00 | 39 | 1011.5 |
| 20260506004522 | 9 | 302 | 6.4 | 19.3 | 0.00 | 0.00 | 0.00 | 38 | 1011.3 |
| 20260506003022 | 10 | 309 | 9.7 | 22.5 | 0.00 | 0.00 | 0.00 | 38 | 1011.3 |
| 20260506001606 | 10 | 340 | 8.0 | 20.9 | 0.00 | 0.00 | 0.00 | 38 | 1011.1 |
| 20260506000059 | 10 | 311 | 6.4 | 22.5 | 0.00 | 0.00 | 0.00 | 37 | 1010.9 |
| 20260505234539 | 10 | 321 | 8.0 | 20.9 | 0.00 | 0.00 | 0.00 | 37 | 1010.8 |
| 20260505233045 | 10 | 345 | 12.9 | 20.9 | 0.00 | 0.00 | 0.00 | 36 | 1010.7 |
| 20260505231520 | 10 | 316 | 8.0 | 17.7 | 0.00 | 0.00 | 0.00 | 36 | 1010.7 |
| 20260505230025 | 11 | 300 | 8.0 | 22.5 | 0.00 | 0.00 | 0.00 | 35 | 1010.7 |
| 20260505224501 | 11 | 307 | 8.0 | 20.9 | 0.00 | 0.00 | 0.00 | 34 | 1010.6 |
| 20260505223004 | 11 | 307 | 9.7 | 24.1 | 0.00 | 0.00 | 0.00 | 35 | 1010.6 |
| 20260505221544 | 11 | 307 | 12.9 | 30.6 | 0.00 | 0.00 | 0.00 | 35 | 1010.5 |
| 20260505220043 | 11 | 292 | 9.7 | 19.3 | 0.00 | 0.00 | 0.00 | 36 | 1010.5 |
| 20260505214524 | 11 | 331 | 9.7 | 25.7 | 0.00 | 0.00 | 0.00 | 33 | 1010.5 |
| 20260505213027 | 11 | 322 | 8.0 | 25.7 | 0.00 | 0.00 | 0.00 | 34 | 1010.5 |
| 20260505211504 | 11 | 301 | 6.4 | 25.7 | 0.00 | 0.00 | 0.00 | 35 | 1010.7 |
| 20260505210003 | 11 | 300 | 9.7 | 20.9 | 0.00 | 0.00 | 0.00 | 35 | 1010.7 |
| 20260505204550 | 11 | 327 | 4.8 | 24.1 | 0.00 | 0.00 | 0.00 | 36 | 1010.7 |
| 20260505203049 | 11 | 309 | 4.8 | 17.7 | 0.00 | 0.00 | 0.00 | 37 | 1010.8 |
| 20260505201555 | 11 | 291 | 4.8 | 35.4 | 0.00 | 0.00 | 0.00 | 39 | 1010.9 |
| 20260505200047 | 11 | 290 | 8.0 | 20.9 | 0.00 | 0.00 | 0.00 | 38 | 1010.9 |
| 20260505194548 | 11 | 293 | 8.0 | 19.3 | 0.00 | 0.00 | 0.00 | 37 | 1010.9 |
| 20260505193046 | 11 | 287 | 4.8 | 25.7 | 0.00 | 0.00 | 0.00 | 38 | 1011.0 |
| 20260505191600 | 11 | 307 | 8.0 | 20.9 | 0.00 | 0.00 | 0.00 | 37 | 1010.9 |
| 20260505190054 | 11 | 311 | 3.2 | 16.1 | 0.00 | 0.00 | 0.00 | 37 | 1011.0 |
| 20260505184520 | 11 | 300 | 6.4 | 20.9 | 0.00 | 0.00 | 0.00 | 37 | 1011.1 |
| 20260505183017 | 10 | 306 | 6.4 | 16.1 | 0.00 | 0.00 | 0.00 | 39 | 1011.1 |
| 20260505181558 | 10 | 276 | 1.6 | 14.5 | 0.00 | 0.00 | 0.00 | 41 | 1011.2 |
| 20260505180056 | 10 | 332 | 6.4 | 12.9 | 0.00 | 0.00 | 0.00 | 40 | 1011.1 |
| 20260505174538 | 10 | 310 | 8.0 | 19.3 | 0.00 | 0.00 | 0.00 | 43 | 1011.2 |
| 20260505173046 | 9 | 316 | 4.8 | 14.5 | 0.00 | 0.00 | 0.00 | 45 | 1011.1 |
| 20260505171521 | 9 | 293 | 6.4 | 24.1 | 0.00 | 0.00 | 0.00 | 44 | 1011.1 |
| 20260505170019 | 9 | 341 | 6.4 | 16.1 | 0.00 | 0.00 | 0.00 | 44 | 1011.0 |
| 20260505164600 | 10 | 311 | 8.0 | 16.1 | 0.00 | 0.00 | 0.00 | 43 | 1011.0 |
| 20260505163056 | 9 | 292 | 4.8 | 14.5 | 0.00 | 0.00 | 0.00 | 43 | 1011.0 |
| 20260505161534 | 9 | 283 | 4.8 | 12.9 | 0.00 | 0.00 | 0.00 | 44 | 1011.1 |
| 20260505153017 | 8 | 257 | 6.4 | 27.4 | 0.00 | 0.00 | 0.00 | 47 | 1011.0 |
| 20260505151520 | 8 | 264 | 3.2 | 11.3 | 0.00 | 0.00 | 0.00 | 50 | 1011.0 |
| 20260505124527 | -17 | 0.0 | 0.0 | 0.00 | 0.00 | 0.00 | 1010.0 | ||
| 20260505123005 | -17 | 0.0 | 0.0 | 0.00 | 0.00 | 0.00 | 1010.0 | ||
| 20260505121502 | -17 | 0.0 | 0.0 | 0.00 | 0.00 | 0.00 | 1009.8 | ||
| 20260505120100 | -17 | 0.0 | 0.0 | 0.00 | 0.00 | 0.00 | 1009.7 | ||
| 20260505114535 | -17 | 0.0 | 0.0 | 0.00 | 0.00 | 0.00 | 1009.4 | ||
| 20260505113012 | -17 | 0.0 | 0.0 | 0.00 | 0.00 | 0.00 | 1009.1 | ||
| 20260505111508 | -17 | 0.0 | 0.0 | 0.00 | 0.00 | 0.00 | 1008.8 | ||
| 20260505101524 | 2 | 293 | 1.6 | 4.8 | 0.00 | 0.00 | 0.00 | 70 | 1008.0 |
| 20260505100004 | 2 | 299 | 1.6 | 3.2 | 0.00 | 0.00 | 0.00 | 70 | 1007.9 |
| 20260505094501 | 2 | 307 | 0.0 | 4.8 | 0.00 | 0.00 | 0.00 | 70 | 1008.0 |
| 20260505093043 | 2 | 280 | 0.0 | 3.2 | 0.00 | 0.00 | 0.00 | 69 | 1007.9 |
| 20260505091539 | 2 | 278 | 0.0 | 3.2 | 0.00 | 0.00 | 0.00 | 66 | 1007.9 |
| 20260505090036 | 3 | 299 | 0.0 | 3.2 | 0.00 | 0.00 | 0.00 | 65 | 1007.7 |
| 20260505084518 | 3 | 298 | 0.0 | 4.8 | 0.00 | 0.00 | 0.00 | 65 | 1007.6 |
| 20260505083057 | 3 | 302 | 0.0 | 3.2 | 0.00 | 0.00 | 0.00 | 63 | 1007.5 |
| 20260505081553 | 3 | 312 | 1.6 | 3.2 | 0.00 | 0.00 | 0.00 | 62 | 1007.3 |
| 20260505080038 | 4 | 309 | 1.6 | 3.2 | 0.00 | 0.00 | 0.00 | 61 | 1007.2 |
| 20260505074531 | 4 | 311 | 1.6 | 4.8 | 0.00 | 0.00 | 0.00 | 60 | 1007.1 |
| 20260505073019 | 5 | 314 | 1.6 | 4.8 | 0.00 | 0.00 | 0.00 | 58 | 1007.0 |
| 20260505071515 | 5 | 308 | 1.6 | 4.8 | 0.00 | 0.00 | 0.00 | 56 | 1006.9 |
| 20260505070048 | 6 | 314 | 3.2 | 9.7 | 0.00 | 0.00 | 0.00 | 54 | 1006.8 |
| 20260505064548 | 6 | 313 | 8.0 | 17.7 | 0.00 | 0.00 | 0.00 | 53 | 1006.9 |
| 20260505063034 | 6 | 295 | 3.2 | 11.3 | 0.00 | 0.00 | 0.00 | 54 | 1007.0 |
| 20260505061546 | 6 | 342 | 8.0 | 16.1 | 0.00 | 0.00 | 0.00 | 54 | 1006.9 |
| 20260505060034 | 6 | 318 | 6.4 | 14.5 | 0.00 | 0.00 | 0.00 | 55 | 1006.9 |
| 20260505054552 | 6 | 333 | 6.4 | 12.9 | 0.00 | 0.00 | 0.00 | 54 | 1006.8 |
| 20260505053032 | 5 | 333 | 4.8 | 9.7 | 0.00 | 0.00 | 0.00 | 55 | 1006.7 |
| 20260505051525 | 6 | 309 | 1.6 | 4.8 | 0.00 | 0.00 | 0.00 | 54 | 1006.6 |